Date,TemperatureHighF,TemperatureAvgF,TemperatureLowF,DewpointHighF,DewpointAvgF,DewpointLowF,HumidityHigh,HumidityAvg,HumidityLow,PressureMaxIn,PressureMinIn,WindSpeedMaxMPH,WindSpeedAvgMPH,GustSpeedMaxMPH,PrecipitationSumIn
2013-6-1,64,49,33,28,18,9,56,31,16,0.00,40.00,11,5,24,0.00
2013-6-2,70,54,33,31,16,-100,76,35,10,0.00,40.00,11,6,27,0.00
2013-6-3,70,59,48,28,19,13,38,23,11,0.00,40.00,17,9,37,0.00
2013-6-4,67,56,47,31,25,20,48,31,17,0.00,40.00,16,8,34,0.00
2013-6-5,69,51,39,45,34,14,100,65,12,0.00,40.00,14,5,28,0.01
2013-6-6,68,52,34,40,32,23,98,58,19,0.00,40.00,10,4,21,0.02
2013-6-7,63,51,38,40,34,27,87,56,28,0.00,40.00,15,5,30,0.02
2013-6-8,70,60,49,30,27,23,43,30,18,0.00,40.00,15,9,34,0.00
2013-6-9,77,64,44,33,24,18,58,26,11,0.00,40.00,11,6,22,0.00
2013-6-10,78,67,52,33,24,19,34,21,11,0.00,40.00,16,7,35,0.00
2013-6-11,75,67,53,30,16,7,31,16,7,0.00,40.00,21,10,37,0.00
2013-6-12,77,64,52,28,20,15,30,19,10,0.00,40.00,13,7,28,0.00
2013-6-13,76,63,49,39,24,13,56,24,13,0.00,40.00,15,8,35,0.00
2013-6-14,76,63,50,37,24,10,60,28,9,0.00,40.00,17,8,42,0.00
2013-6-15,73,59,43,38,27,12,65,35,11,0.00,40.00,13,6,28,0.00
2013-6-16,66,54,45,42,31,23,79,43,25,0.00,40.00,23,8,40,0.05
2013-6-17,69,51,39,40,33,24,76,54,22,0.00,40.00,10,4,22,0.06
2013-6-18,70,56,40,43,32,22,83,46,20,0.00,40.00,13,7,30,0.01
2013-6-19,76,60,41,40,20,2,75,31,6,0.00,40.00,12,7,31,0.00
2013-6-20,73,61,47,19,9,1,21,13,9,0.00,40.00,12,7,25,0.00
2013-6-22,73,66,55,21,13,8,20,13,8,0.00,40.00,17,10,30,0.00
2013-6-23,73,58,44,35,20,13,43,24,13,0.00,40.00,14,7,33,0.00
2013-6-24,71,59,45,35,22,11,57,29,10,0.00,40.00,13,6,30,0.00
2013-6-25,75,63,52,27,21,16,29,20,15,0.00,40.00,10,8,22,0.00
2013-6-26,84,68,49,32,28,24,38,24,11,0.00,40.00,9,6,19,0.00
2013-6-27,86,71,59,35,28,22,35,21,11,0.00,40.00,11,6,31,0.00
2013-6-28,82,66,51,43,36,27,59,36,14,0.00,40.00,11,6,24,0.00
2013-6-29,73,57,48,46,42,37,85,59,28,0.00,40.00,9,4,26,0.04
2013-6-30,76,57,45,46,41,30,89,60,20,0.00,40.00,9,4,26,0.06